Location: PACMO
(41.3967°N, 90.3760°W)
Time: 13:52:45
(UTC-06:00)

NOAA 19 - Visible Passes

Search period start: 25 February 2018 00:00
Search period end: 07 March 2018 00:00
Orbit: 842 x 861 km, 99.1° (Epoch: 24 February)

Date Brightness Start Highest point End Pass type
(mag) Time Alt. Az. Time Alt. Az. Time Alt. Az.
25 Feb 7.7 02:51:16 10° NE 02:54:30 16° E 02:54:42 16° E visible
25 Feb 5.1 04:30:08 10° N 04:35:40 70° WNW 04:36:45 56° SW visible
25 Feb 7.1 06:14:21 10° NW 06:15:19 10° NW 06:16:17 10° WNW visible
26 Feb 7.9 02:40:46 10° ENE 02:42:47 12° E 02:43:12 12° E visible
26 Feb 5.1 04:18:33 10° NNE 04:24:09 87° WNW 04:25:14 60° SSW visible
26 Feb 6.9 06:01:28 10° NNW 06:03:58 13° WNW 06:06:30 10° W visible
27 Feb 5.3 04:07:00 10° NNE 04:12:36 75° ESE 04:13:44 56° S visible
27 Feb 6.7 05:49:15 10° NNW 05:52:36 17° WNW 05:55:46 11° W visible
28 Feb 5.6 03:55:31 10° NNE 04:01:02 59° ESE 04:02:14 48° SSE visible
28 Feb 6.5 05:37:14 10° NNW 05:41:13 20° WNW 05:44:16 13° W visible
01 Mar 6.1 03:44:05 10° NNE 03:49:25 47° E 03:50:44 39° SE visible
01 Mar 6.2 05:25:21 10° N 05:29:47 25° WNW 05:32:46 16° WSW visible
02 Mar 6.5 03:32:41 10° NNE 03:37:49 37° E 03:39:14 32° SE visible
02 Mar 6.0 05:13:32 10° N 05:18:21 31° WNW 05:21:16 19° WSW visible
03 Mar 6.9 03:21:23 10° NE 03:26:11 29° E 03:27:44 25° ESE visible
03 Mar 5.7 05:01:47 10° N 05:06:54 38° WNW 05:09:46 23° WSW visible
04 Mar 7.2 03:10:10 10° NE 03:14:32 23° E 03:16:14 20° ESE visible
04 Mar 5.4 04:50:06 10° N 04:55:25 48° WNW 04:58:16 26° SW visible
05 Mar 7.5 02:59:07 10° NE 03:02:51 18° E 03:04:44 16° ESE visible
05 Mar 5.2 04:38:26 10° N 04:43:55 61° WNW 04:46:46 28° SW visible
06 Mar 7.8 02:48:18 10° ENE 02:51:09 14° E 02:53:13 12° ESE visible
06 Mar 5.1 04:26:50 10° N 04:32:23 76° WNW 04:35:16 29° SSW visible
